Fremont, MI

7:58 AM EDT on August 22, 2019 (GMT -0400)
Fremont

Weather History for KFFX - May, 2019

Change the Weather History Date:

Thursday, May 9, 2019

  Actual Average (KMKG) Record (KMKG)
Temperature  
Mean Temperature 57 °F -  
Max Temperature 67 °F 65 °F 89 °F (1993)
Min Temperature 46 °F 44 °F 28 °F (1955)
Degree Days  
Heating Degree Days 8    
Growing Degree Days 7 (Base 50)    
Moisture  
Dew Point 49 °F    
Average Humidity 84    
Maximum Humidity 100    
Minimum Humidity 47    
Precipitation  
Precipitation 0.00 in - - ()
Sea Level Pressure  
Sea Level Pressure 29.75 in    
Wind  
Wind Speed 13 mph (South)    
Max Wind Speed 24 mph    
Max Gust Speed 33 mph    
Visibility 9 miles    
Events Rain    
Averages and records for this station are not official NWS values.
T = Trace of Precipitation, MM = Missing Value Source: NWS Daily Summary

Daily Weather History Graph

Daily Weather History Graph

Search for Another Location

Airport or City:

Astronomy

May. 09, 2019 Rise Set
Actual Time 6:26 AM EDT 8:54 PM EDT
Civil Twilight 5:54 AM EDT 9:27 PM EDT
Nautical Twilight 5:14 AM EDT 10:07 PM EDT
Astronomical Twilight 4:29 AM EDT 10:53 PM EDT
Moon 10:18 AM EDT (5/9) 12:56 AM EDT (5/9)
Length of Visible Light 15h 32m
Length of Day
14h 28m
Waxing Crescent, 24% of the Moon is Illuminated
May 9
Waxing Crescent
May 11
First Quarter
May 18
Full
May 26
Last Quarter
Jun 3
New

Hourly Weather History & Observations

Time (EDT) Temp. Dew Point Humidity Pressure Visibility Wind Dir Wind Speed Gust Speed Precip Events Conditions
12:15 AM 53.8 °F 34.2 °F 47% 29.85 in 10.0 mi ESE 21.9 mph 32.2 mph N/A   Mostly Cloudy
12:36 AM 53.6 °F 34.7 °F 49% 29.83 in 10.0 mi ESE 24.2 mph 33.4 mph N/A   Overcast
12:56 AM 52.5 °F 37.6 °F 57% 29.82 in 10.0 mi ESE 17.3 mph 31.1 mph N/A Rain Light Rain
1:15 AM 52.7 °F 37.0 °F 55% 29.81 in 10.0 mi ESE 19.6 mph 29.9 mph N/A   Mostly Cloudy
1:35 AM 53.4 °F 36.5 °F 53% 29.80 in 10.0 mi ESE 15.0 mph 25.3 mph N/A   Mostly Cloudy
1:56 AM 53.8 °F 36.5 °F 52% 29.79 in 10.0 mi ESE 17.3 mph 24.2 mph N/A   Overcast
2:16 AM 54.1 °F 37.6 °F 54% 29.85 in 10.0 mi WNW 16.1 mph 20.7 mph N/A   Overcast
2:35 AM 54.1 °F 38.7 °F 56% 29.83 in 10.0 mi North 5.8 mph - N/A   Light Drizzle
2:56 AM 51.6 °F 42.6 °F 71% 29.85 in 3.0 mi NE 4.6 mph - N/A Rain Rain
3:16 AM 49.3 °F 44.1 °F 82% 29.83 in 5.0 mi East 10.4 mph - N/A Rain Heavy Rain
3:35 AM 48.2 °F 47.1 °F 96% 29.81 in 5.0 mi ENE 6.9 mph - N/A Rain Rain
3:55 AM 48.2 °F 47.3 °F 97% 29.82 in 1.8 mi East 9.2 mph - N/A Rain Heavy Rain
4:16 AM 47.7 °F 46.6 °F 96% 29.79 in 7.0 mi East 10.4 mph 17.3 mph N/A Rain Rain
4:36 AM 47.3 °F 46.2 °F 96% 29.78 in 7.0 mi East 12.7 mph 16.1 mph N/A Rain Rain
4:55 AM 47.3 °F 46.8 °F 98% 29.78 in 3.0 mi East 8.1 mph 16.1 mph N/A Rain Rain
5:15 AM 47.3 °F 46.8 °F 98% 29.77 in 10.0 mi ESE 10.4 mph - N/A Rain Light Rain
5:36 AM 47.3 °F 46.9 °F 99% 29.76 in 10.0 mi ESE 10.4 mph - N/A Rain Light Rain
5:55 AM 47.7 °F 47.3 °F 99% 29.75 in 10.0 mi ESE 9.2 mph - N/A Rain Light Rain
6:15 AM 47.7 °F 46.9 °F 97% 29.73 in 10.0 mi ESE 8.1 mph - N/A Rain Rain
6:36 AM 47.7 °F 47.3 °F 99% 29.72 in 10.0 mi ESE 6.9 mph - N/A Rain Light Rain
6:56 AM 47.8 °F 47.3 °F 98% 29.70 in 10.0 mi East 8.1 mph - N/A Rain Light Rain
7:15 AM 48.2 °F 47.5 °F 97% 29.70 in 10.0 mi ESE 8.1 mph - N/A Rain Light Rain
7:36 AM 48.2 °F 47.5 °F 97% 29.71 in 7.0 mi East 6.9 mph - N/A Rain Heavy Rain
7:55 AM 48.0 °F 47.7 °F 99% 29.69 in 7.0 mi East 8.1 mph - N/A Rain Heavy Rain
8:16 AM 47.8 °F 47.7 °F 99% 29.68 in 7.0 mi East 9.2 mph - N/A Rain Rain
8:35 AM 47.8 °F 47.7 °F 99% 29.68 in 2.0 mi East 5.8 mph - N/A Rain Heavy Rain
8:55 AM 48.2 °F 48.2 °F 100% 29.66 in 3.0 mi ESE 10.4 mph - N/A Rain Rain
9:16 AM 48.6 °F 48.6 °F 100% 29.65 in 7.0 mi SE 9.2 mph 17.3 mph N/A Rain Light Rain
9:35 AM 49.3 °F 49.3 °F 100% 29.67 in 10.0 mi SE 6.9 mph - N/A   Overcast
9:55 AM 49.6 °F 49.5 °F 99% 29.66 in 10.0 mi ESE 8.1 mph - N/A   Overcast
10:16 AM 50.4 °F 50.2 °F 99% 29.65 in 10.0 mi SE 8.1 mph - N/A   Overcast
10:36 AM 51.8 °F 51.4 °F 99% 29.65 in 10.0 mi SE 6.9 mph - N/A   Overcast
10:55 AM 52.9 °F 52.2 °F 97% 29.66 in 10.0 mi SE 5.8 mph - N/A   Overcast
11:15 AM 53.1 °F 52.3 °F 97% 29.66 in 10.0 mi ESE 5.8 mph - N/A   Overcast
11:36 AM 54.0 °F 53.2 °F 97% 29.66 in 10.0 mi ESE 6.9 mph - N/A   Overcast
11:55 AM 55.0 °F 54.0 °F 96% 29.66 in 10.0 mi SE 5.8 mph - N/A   Overcast
12:15 PM 56.8 °F 55.9 °F 97% 29.66 in 7.0 mi SSE 3.5 mph - N/A   Overcast
12:35 PM 57.2 °F 56.5 °F 97% 29.67 in 10.0 mi Calm Calm - N/A   Overcast
12:56 PM 58.1 °F 57.7 °F 99% 29.67 in 7.0 mi South 4.6 mph - N/A Rain Rain
1:15 PM 59.0 °F 59.0 °F 100% 29.67 in 5.0 mi SSW 8.1 mph - N/A   Overcast
1:36 PM 60.3 °F 60.3 °F 100% 29.67 in 3.0 mi SSW 6.9 mph - N/A   Overcast
1:56 PM 63.0 °F 62.4 °F 98% 29.67 in 7.0 mi SW 6.9 mph - N/A   Overcast
2:15 PM 65.5 °F 63.3 °F 93% 29.67 in 10.0 mi SW 6.9 mph - N/A   Overcast
2:35 PM 67.3 °F 62.4 °F 84% 29.67 in 10.0 mi SW 18.4 mph 23.0 mph N/A   Overcast
2:56 PM 66.4 °F 61.2 °F 83% 29.68 in 10.0 mi WSW 13.8 mph 21.9 mph N/A   Overcast
3:16 PM 66.4 °F 61.2 °F 83% 29.69 in 10.0 mi SW 18.4 mph 26.5 mph N/A   Overcast
3:35 PM 66.2 °F 60.3 °F 81% 29.70 in 10.0 mi SW 19.6 mph 25.3 mph N/A   Overcast
3:56 PM 64.2 °F 57.6 °F 79% 29.71 in 10.0 mi WSW 17.3 mph 23.0 mph N/A   Overcast
4:15 PM 63.7 °F 56.7 °F 78% 29.71 in 10.0 mi West 13.8 mph 20.7 mph N/A   Overcast
4:35 PM 64.0 °F 55.6 °F 74% 29.71 in 10.0 mi West 13.8 mph - N/A   Overcast
4:56 PM 63.5 °F 54.3 °F 72% 29.72 in 10.0 mi WSW 15.0 mph 25.3 mph N/A   Overcast
5:16 PM 61.5 °F 52.9 °F 73% 29.73 in 10.0 mi West 16.1 mph 24.2 mph N/A   Overcast
5:35 PM 59.5 °F 50.4 °F 72% 29.74 in 10.0 mi West 16.1 mph 25.3 mph N/A   Overcast
5:56 PM 59.2 °F 50.7 °F 74% 29.74 in 10.0 mi West 15.0 mph 21.9 mph N/A   Overcast
6:16 PM 57.6 °F 48.2 °F 71% 29.75 in 10.0 mi West 15.0 mph 24.2 mph N/A   Overcast
6:35 PM 57.6 °F 47.5 °F 69% 29.75 in 10.0 mi West 12.7 mph 21.9 mph N/A   Overcast
6:55 PM 57.6 °F 46.8 °F 67% 29.76 in 10.0 mi West 12.7 mph 21.9 mph N/A   Overcast
7:16 PM 57.2 °F 46.4 °F 67% 29.76 in 10.0 mi West 13.8 mph 17.3 mph N/A   Overcast
7:36 PM 57.2 °F 46.0 °F 66% 29.78 in 10.0 mi West 12.7 mph 18.4 mph N/A   Overcast
7:55 PM 55.4 °F 45.1 °F 68% 29.78 in 10.0 mi West 13.8 mph 19.6 mph N/A   Overcast
8:16 PM 54.3 °F 46.0 °F 74% 29.79 in 10.0 mi West 12.7 mph 16.1 mph N/A   Overcast
8:36 PM 53.2 °F 46.8 °F 79% 29.80 in 10.0 mi WNW 11.5 mph - N/A   Overcast
8:55 PM 52.7 °F 47.1 °F 81% 29.80 in 10.0 mi WNW 11.5 mph - N/A   Overcast
9:15 PM 51.8 °F 46.8 °F 83% 29.81 in 10.0 mi WNW 13.8 mph 18.4 mph N/A   Overcast
9:36 PM 51.1 °F 45.1 °F 80% 29.82 in 10.0 mi NW 11.5 mph - N/A   Overcast
9:55 PM 50.4 °F 43.9 °F 78% 29.83 in 10.0 mi NW 16.1 mph 21.9 mph N/A   Overcast
10:15 PM 50.0 °F 43.7 °F 79% 29.84 in 10.0 mi WNW 16.1 mph 19.6 mph N/A   Overcast
10:36 PM 49.3 °F 44.2 °F 83% 29.84 in 10.0 mi WNW 12.7 mph - N/A   Overcast
10:56 PM 48.0 °F 45.3 °F 90% 29.84 in 10.0 mi NW 11.5 mph - N/A   Overcast
11:15 PM 47.3 °F 45.5 °F 93% 29.84 in 10.0 mi WNW 10.4 mph - N/A   Overcast
11:36 PM 47.3 °F 45.5 °F 93% 29.84 in 10.0 mi WNW 8.1 mph - N/A   Overcast
11:56 PM 46.6 °F 45.5 °F 96% 29.84 in 10.0 mi WNW 9.2 mph - N/A   Overcast